311 
ASUS46 KSEW 220710
RWRWA 

WASHINGTON REGIONAL WEATHER ROUNDUP
NATIONAL WEATHER SERVICE SEATTLE WA
1200 AM PDT TUE MAY 22 2018

NOTE:"FAIR" INDICATES FEW OR NO CLOUDS BELOW 12,000 FEET WITH NO 
SIGNIFICANT WEATHER AND/OR OBSTRUCTIONS TO VISIBILITY.

WAZ507-509-555>559-220800-
SEATTLE, TACOMA, EVERETT, AND VICINITY
  
CITY           SKY/WX    TMP DP  RH WIND       PRES   REMARKS
EVERETT        CLEAR     52  48  86 NW8       30.01S                  
BOEING FIELD   CLEAR     58  48  69 NW5       29.99F                  
RENTON         CLEAR     60  50  69 N5        29.99S                  
SEATAC AIRPORT CLEAR     57  47  69 CALM      29.99F                  
JBLM-MCCHORD   CLEAR     51  51  99 CALM      29.99F                  
PUYALLUP       FAIR      52  50  93 CALM      29.99F                  
BREMERTON      CLEAR     49  45  86 CALM      30.00S                  
JBLM-FT LEWIS  CLEAR     53  53  98 SE3       29.99S                  
TACOMA NARROWS CLEAR     57  46  66 N5        30.00S                  
$$
 
WAZ001-503-506-510-514-515-220800-
NORTH INTERIOR
  
CITY           SKY/WX    TMP DP  RH WIND       PRES   REMARKS
BELLINGHAM     CLEAR     57  52  83 S6        29.99S                  
FRIDAY HARBOR  CLEAR     49  46  90 CALM      30.00F                  
EASTSOUND      CLEAR     57  50  77 S6        29.98S                  
PORT ANGELES   CLEAR     51  48  89 W9        30.03S                  
EDIZ HOOK      FAIR      52  47  85 W12       30.02S                  
PORT TOWNSEND  FAIR      50  46  87 CALM      30.02S                  
NAS WHIDBEY    PTCLDY    53  49  86 SW6       30.05S                  
ARLINGTON      CLEAR     51  48  89 NW5       30.02S                  
BURLINGTON     CLEAR     48  46  93 CALM      30.01S                  
$$
 
WAZ020-022-039-040-504-511-512-220800-
SOUTHWEST INTERIOR
  
CITY           SKY/WX    TMP DP  RH WIND       PRES   REMARKS
SHELTON        CLEAR     54  49  83 CALM      29.98S                  
OLYMPIA        CLEAR     50  48  93 CALM      29.99S                  
CHEHALIS       FAIR      52  52 100 CALM      29.99S                  
KELSO          CLEAR     56  51  84 NE3       29.98S                  
VANCOUVER      CLEAR     59  52  77 CALM      29.94S                  
SCAPPOOSE, OR  CLEAR     61  50  67 NW5       29.94S                  
PORTLAND, OR   CLEAR     61  51  70 W3        29.95S                  
$$
 
WAZ021-516-517-220800-
WASHINGTON COAST
  
CITY           SKY/WX    TMP DP  RH WIND       PRES   REMARKS
FORKS          CLOUDY    52  48  86 N5        30.02F                  
HOQUIAM        CLEAR     53  49  86 W3        30.01F                  
ASTORIA, OR    CLEAR     50  48  93 CALM      29.99F                  
$$
 
WAZ019-023-024-040-567>569-220800-
CASCADE MOUNTAINS AND COLUMBIA GORGE
  
CITY           SKY/WX    TMP DP  RH WIND       PRES   REMARKS
STAMPEDE PASS  NOT AVBL                                               
TROUTDALE, OR  CLEAR     58  52  80 E3        29.95R                  
HOOD RIVER, OR SUNNY     55  46  71 S5        29.93R                  
THE DALLES, OR CLEAR     66  49  54 NW12      29.88S                  
$$

WAZ026-027-041>044-520-521-220800-
EAST SLOPES
  
CITY           SKY/WX    TMP DP  RH WIND       PRES   REMARKS
OMAK           CLEAR     61  52  72 W3        29.90R                  
WENATCHEE      CLEAR     68  43  40 NW6       29.90R                  
ELLENSBURG     NOT AVBL                                               
YAKIMA         CLEAR     64  42  44 W8        29.91R                  
SUNNYSIDE ARPT SUNNY     60  49  67 CALM      29.89R                  
YAKIMA TC      FAIR      58  39  48 NE5       29.90R                  
$$

WAZ028-034-035-220800-
COLUMBIA BASIN
  
CITY           SKY/WX    TMP DP  RH WIND       PRES   REMARKS
EPHRATA        CLEAR     60  50  69 S3        29.89S                  
MOSES LAKE     CLEAR     65  51  60 CALM      29.90R                  
PASCO          NOT AVBL                                               
RICHLAND ARPT  SUNNY     62  53  70 N3        29.86S                  
HERMISTON, OR  CLEAR     60  52  74 CALM      29.86S                  
$$

WAZ036>038-220800-
NORTHEAST WASHINGTON
  
CITY           SKY/WX    TMP DP  RH WIND       PRES   REMARKS
SPOKANE GEIGER CLEAR     60  52  74 SW6       29.93S                  
SPOKANE FELTS  CLEAR     59  51  75 N3        29.93R                  
FAIRCHILD AFB  CLEAR     58  50  75 W7        29.94R                  
COEURDALENE,ID CLEAR     60  54  80 SE9       29.94S                  
DEER PARK      CLEAR     53  49  86 NE3       29.93S                  
$$

WAZ029>033-220800-
SOUTHEAST WASHINGTON
  
CITY           SKY/WX    TMP DP  RH WIND       PRES   REMARKS
PULLMAN        CLEAR     58  53  84 CALM      29.96S                  
LEWISTON, ID   CLEAR     63  54  72 S5        29.90S                  
WALLA WALLA    NOT AVBL                                               
PENDLETON, OR  CLEAR     59  53  80 SE9       29.89F                  
$$